Weather History for KSGF - September, 2013

Change the Weather History Date:

Monday, September 16, 2013

  Actual Average Record
Temperature  
Mean Temperature 71 °F 69 °F  
Max Temperature 75 °F 80 °F 95 °F (1980)
Min Temperature 66 °F 58 °F 41 °F (1961)
Degree Days  
Heating Degree Days 0 2  
Month to date heating degree days 0 9  
Since 1 July heating degree days 0 11  
Cooling Degree Days 6 5  
Month to date cooling degree days 173 121  
Year to date cooling degree days 1316 1307  
Growing Degree Days 20 (Base 50)    
Moisture  
Dew Point 64 °F    
Average Humidity 81    
Maximum Humidity 93    
Minimum Humidity 68    
Precipitation  
Precipitation 0.09 in 0.16 in 1.73 in (1911)
Month to date precipitation 0.13 2.48  
Year to date precipitation 38.28 32.59  
Snow  
Snow 0.00 in - - ()
Month to date snowfall 0.0  
Since 1 July snowfall 0.0  
Since 1 September snowfall 0.0  
Snow Depth 0.00 in    
Sea Level Pressure  
Sea Level Pressure 30.15 in    
Wind  
Wind Speed 7 mph (East)    
Max Wind Speed 15 mph    
Max Gust Speed 17 mph    
Visibility 9 miles    
Events Rain , Thunderstorm    
T = Trace of Precipitation, MM = Missing Value Source: NWS Daily Summary

Daily Weather History Graph

Daily Weather History Graph

Search for Another Location

Airport or City:

Trip Planner

Search our weather history database for the weather conditions in past years. The results will help you decide how hot, cold, wet, or windy it might be!

Date:

Astronomy

Sep. 16, 2013 Rise Set
Actual Time 6:56 AM CDT 7:19 PM CDT
Civil Twilight 6:30 AM CDT 7:45 PM CDT
Nautical Twilight 5:59 AM CDT 8:15 PM CDT
Astronomical Twilight 5:28 AM CDT 8:47 PM CDT
Moon 5:26 PM CDT (9/16) 3:46 AM CDT (9/16)
Length of Visible Light 13h 14m
Length of Day
12h 22m
Waxing Gibbous, 90% of the Moon is Illuminated
Sep 16
Waxing Gibbous
Sep 19
Full
Sep 26
Last Quarter
Oct 4
New
Oct 11
First Quarter

Hourly Weather History & Observations

Time (CDT) Temp. Dew Point Humidity Pressure Visibility Wind Dir Wind Speed Gust Speed Precip Events Conditions
12:52 AM 71.1 °F 60.1 °F 68% 30.06 in 10.0 mi NNE 9.2 mph - N/A   Partly Cloudy
1:52 AM 72.0 °F 61.0 °F 68% 30.07 in 10.0 mi NE 6.9 mph - N/A   Overcast
2:52 AM 70.0 °F 62.1 °F 76% 30.06 in 10.0 mi ENE 3.5 mph - N/A   Clear
3:34 AM 70.0 °F 63.0 °F 78% 30.12 in 10.0 mi North 8.1 mph - N/A Thunderstorm Overcast
3:52 AM 70.0 °F 63.0 °F 78% 30.08 in 10.0 mi NE 11.5 mph - N/A Thunderstorm Overcast
4:05 AM 70.0 °F 63.0 °F 78% 30.12 in 10.0 mi NE 12.7 mph - N/A   Overcast
4:52 AM 68.0 °F 64.0 °F 87% 30.09 in 10.0 mi ENE 8.1 mph - 0.01 in   Partly Cloudy
5:00 AM 68.0 °F 64.9 °F 90% 30.12 in 10.0 mi ENE 9.2 mph - N/A Thunderstorm Mostly Cloudy
5:09 AM 68.0 °F 64.0 °F 87% 30.13 in 10.0 mi NE 6.9 mph - N/A Thunderstorm Thunderstorm
5:24 AM 68.0 °F 64.9 °F 90% 30.13 in 5.0 mi ENE 8.1 mph - 0.01 in Rain Rain
5:52 AM 66.9 °F 64.9 °F 93% 30.10 in 8.0 mi NE 10.4 mph - 0.05 in Rain , Thunderstorm Light Thunderstorms and Rain
6:28 AM 66.9 °F 64.9 °F 93% 30.16 in 9.0 mi East 3.5 mph - 0.03 in Rain , Thunderstorm Light Thunderstorms and Rain
6:35 AM 66.9 °F 64.9 °F 93% 30.16 in 9.0 mi East 4.6 mph - 0.03 in Thunderstorm Overcast
6:47 AM 66.2 °F 64.4 °F 94% 30.17 in 8.0 mi SE 5.8 mph - 0.03 in Thunderstorm Overcast
6:52 AM 66.9 °F 64.9 °F 93% 30.14 in 8.0 mi ESE 5.8 mph - 0.03 in Thunderstorm Overcast
7:02 AM 66.9 °F 64.9 °F 93% 30.17 in 8.0 mi ESE 4.6 mph - N/A   Overcast
7:52 AM 66.9 °F 64.9 °F 93% 30.15 in 9.0 mi ESE 8.1 mph - N/A   Mostly Cloudy
8:52 AM 68.0 °F 64.9 °F 90% 30.17 in 10.0 mi ESE 6.9 mph - N/A   Overcast
9:52 AM 69.1 °F 64.9 °F 87% 30.19 in 9.0 mi SE 6.9 mph - 0.00 in Rain Light Rain
10:52 AM 69.1 °F 64.9 °F 87% 30.18 in 10.0 mi SE 4.6 mph - 0.00 in   Overcast
10:59 AM 69.1 °F 66.0 °F 90% 30.21 in 9.0 mi East 6.9 mph - N/A   Overcast
11:14 AM 70.0 °F 66.0 °F 87% 30.21 in 9.0 mi SE 6.9 mph - 0.00 in Rain Light Rain
11:52 AM 70.0 °F 66.0 °F 87% 30.20 in 8.0 mi South 5.8 mph - 0.00 in   Overcast
12:01 PM 71.1 °F 66.0 °F 84% 30.22 in 8.0 mi South 3.5 mph - N/A   Overcast
12:48 PM 71.6 °F 64.4 °F 78% 30.21 in 10.0 mi ESE 4.6 mph - N/A   Mostly Cloudy
12:52 PM 72.0 °F 64.9 °F 78% 30.18 in 10.0 mi Calm Calm - N/A   Mostly Cloudy
1:18 PM 72.0 °F 66.0 °F 81% 30.22 in 10.0 mi South 4.6 mph - 0.00 in Rain Light Rain
1:52 PM 72.0 °F 66.0 °F 81% 30.18 in 10.0 mi Variable 3.5 mph - 0.00 in   Overcast
2:52 PM 73.0 °F 66.0 °F 79% 30.16 in 10.0 mi Calm Calm - N/A   Overcast
3:52 PM 75.0 °F 66.9 °F 76% 30.13 in 10.0 mi NE 5.8 mph - N/A   Mostly Cloudy
4:52 PM 73.0 °F 66.9 °F 81% 30.13 in 9.0 mi NNE 10.4 mph - 0.00 in   Overcast
5:35 PM 70.0 °F 64.9 °F 84% 30.16 in 10.0 mi NE 12.7 mph - N/A   Mostly Cloudy
5:52 PM 69.1 °F 64.9 °F 87% 30.14 in 10.0 mi ENE 11.5 mph - N/A   Overcast
6:52 PM 66.9 °F 64.0 °F 90% 30.14 in 10.0 mi ENE 12.7 mph - N/A   Overcast
7:52 PM 66.9 °F 63.0 °F 87% 30.14 in 10.0 mi East 12.7 mph - N/A   Overcast
8:52 PM 66.9 °F 63.0 °F 87% 30.16 in 10.0 mi ENE 6.9 mph - N/A   Overcast
9:36 PM 66.9 °F 63.0 °F 87% 30.18 in 10.0 mi East 8.1 mph - N/A   Overcast
9:47 PM 66.2 °F 62.6 °F 88% 30.18 in 10.0 mi East 8.1 mph - N/A   Overcast
9:52 PM 66.9 °F 63.0 °F 87% 30.16 in 10.0 mi East 8.1 mph - N/A   Overcast
10:04 PM 66.9 °F 63.0 °F 87% 30.18 in 10.0 mi East 8.1 mph - N/A   Overcast
10:11 PM 66.9 °F 63.0 °F 87% 30.18 in 10.0 mi East 8.1 mph - N/A   Overcast
10:52 PM 66.0 °F 63.0 °F 90% 30.17 in 10.0 mi East 6.9 mph - N/A   Overcast
11:52 PM 66.0 °F 63.0 °F 90% 30.16 in 10.0 mi ESE 10.4 mph - N/A   Overcast